[[{"header":{"parameterUnit":"m.s-1","parameterCategory":1,"la1":30.2991,"la2":30.254,"lo1":-89.0895,"lo2":-89.0444,"dy":0.0017,"dx":0.0017,"nx":28,"ny":28,"refTime":"2025-05-28T03:00:00:Z","depth":0,"parameterNumber":2,"parameterNumberName":"U-component_of_WINDS"},"data":[0,0,0,0,0,0,0,0,0,0,0,0,0,0,0,0,0,0,0,0,0,0,0,0,0,0,0,0,0,0,0,0,0,0,0,0,0,0,0,0,0,0,0,0,0,0,0,0,0,0,0,0,0,0,0,0,0,0,1.5651,1.5652,0,1.5767,1.5768,1.5769,1.582,1.582,1.5819,1.5819,1.5943,1.5946,1.5949,0,0,0,0,0,0,0,0,0,0,0,0,0,1.5478,1.548,1.5651,1.5652,1.5654,1.5766,1.5768,1.577,1.582,1.582,1.5819,1.5819,1.5941,1.5945,1.595,0,0,0,0,0,0,0,0,0,0,0,0,0,1.5569,1.5481,1.5651,1.5692,1.5697,1.5766,1.5768,1.577,1.582,1.582,1.5819,1.5819,1.594,1.5945,1.595,1.5988,0,0,1.5966,1.5968,0,0,0,0,0,0,0,0,1.5564,1.5575,1.5685,1.5689,1.5695,1.5778,1.5752,1.5843,1.582,1.5773,1.5819,1.5819,1.5888,1.5898,1.592,1.5994,1.5999,1.5967,1.597,1.5972,1.5973,0,0,0,0,0,0,0,1.5557,1.5571,1.5697,1.5686,1.5693,1.5707,1.5719,1.577,1.5831,1.5777,1.5781,1.5794,1.5891,1.5915,1.5924,1.6001,1.5966,1.5971,1.5974,1.5976,1.6112,1.6112,0,0,0,0,0,0,1.5544,1.5565,1.5693,1.57,1.5627,1.571,1.5724,1.5752,1.5831,1.5842,1.5794,1.5796,1.5907,1.5918,1.5928,1.5978,1.5972,1.5977,1.598,1.6112,1.6112,1.6113,0,0,0,0,0,0,1.554,1.5555,1.5689,1.5634,1.5652,1.5713,1.5744,1.5754,1.5778,1.5843,1.5855,1.5807,1.5907,1.5921,1.5973,1.5983,1.5979,1.5984,1.6111,1.6112,1.6112,1.6078,0,0,0,0,0,0,1.5534,1.5553,1.5567,1.5634,1.5655,1.5729,1.5745,1.5757,1.5787,1.579,1.5859,1.587,1.5908,1.5965,1.5978,1.599,1.5988,1.611,1.6111,1.6112,1.6078,1.6077,1.6076,0,0,0,0,0,1.5528,1.5553,1.5567,1.5582,1.5673,1.573,1.5742,1.5784,1.5787,1.5803,1.5844,1.5868,1.5979,1.5969,1.5985,1.5999,1.611,1.6111,1.6112,1.6079,1.6077,1.6076,0,0,0,0,0,0,1.5487,1.5563,1.5579,1.5626,1.5671,1.5738,1.5759,1.5781,1.5827,1.5828,1.588,1.5895,1.5942,1.5976,1.5963,1.604,1.6047,1.6051,1.6016,1.6015,1.6014,1.6006,1.5992,0,0,0,0,0,1.5484,1.5522,1.5586,1.5622,1.5643,1.5697,1.5723,1.5751,1.5801,1.582,1.5866,1.5914,1.596,1.599,1.6036,1.6083,1.6099,1.61,1.6099,1.6098,1.6102,1.613,1.6131,1.6116,1.6116,1.6116,0,0,1.5477,1.5523,1.5544,1.5615,1.5653,1.5693,1.5713,1.5754,1.5785,1.5827,1.5878,1.5913,1.5971,1.602,1.6045,1.605,1.6109,1.61,1.6098,1.6102,1.6131,1.6133,1.6134,1.6117,1.6117,1.6117,0,0,1.5485,1.5523,1.5557,1.5594,1.5651,1.5687,1.5695,1.5759,1.5783,1.5835,1.5867,1.5905,1.5984,1.6023,1.6053,1.6076,1.61,1.609,1.6085,1.6112,1.6113,1.6115,1.6123,1.6126,1.6093,1.6093,1.6093,0,1.547,1.553,1.5572,1.5612,1.5642,1.5681,1.5716,1.5751,1.582,1.5841,1.5846,1.5945,1.5986,1.6046,1.6051,1.6074,1.6086,1.6083,1.6109,1.6111,1.6113,1.6122,1.6125,1.6091,1.6091,1.6092,1.6092,0,1.5509,1.555,1.5571,1.5635,1.5668,1.5706,1.5755,1.5783,1.5809,1.5844,1.5897,1.5947,1.6004,1.6021,1.6046,1.6084,1.6086,1.6099,1.6107,1.6112,1.6122,1.6125,1.6089,1.609,1.609,1.609,0,0,1.5495,1.5582,1.5589,1.5619,1.5684,1.5718,1.5757,1.5811,1.5835,1.5882,1.5917,1.5982,1.5995,1.6029,1.606,1.6083,1.6099,1.6094,1.6096,1.6094,1.6145,1.6135,1.6138,1.6114,1.6115,1.6116,1.614,0,1.5512,1.5583,1.5622,1.5678,1.5717,1.5754,1.5789,1.5833,1.5867,1.5907,1.5945,1.5991,1.6003,1.6024,1.6049,1.6091,1.611,1.609,1.6149,1.6151,1.6134,1.6143,1.6132,1.6153,1.6144,1.6145,1.6145,0,1.5542,1.5587,1.5645,1.5706,1.5724,1.5754,1.5808,1.5844,1.5896,1.592,1.5957,1.5987,1.6032,1.6036,1.6099,1.6085,1.6111,1.6136,1.6138,1.6145,1.6149,1.6151,1.616,1.6163,1.6151,1.6151,1.615,0,1.5527,1.5602,1.5646,1.5671,1.5743,1.5763,1.5795,1.5846,1.5876,1.5923,1.5944,1.5995,1.6024,1.6064,1.6108,1.6107,1.6167,1.6175,1.6189,1.6188,1.6201,1.6199,1.6214,1.6217,1.6216,1.6216,1.6216,0,1.5543,1.5577,1.564,1.5668,1.5708,1.5753,1.5792,1.5827,1.5872,1.5908,1.5944,1.5978,1.6033,1.6074,1.6109,1.6156,1.6169,1.619,1.6199,1.6187,1.6184,1.6205,1.6205,1.6217,1.6217,1.6217,1.6217,0,1.5532,1.5576,1.5627,1.5691,1.5708,1.5735,1.579,1.5819,1.5855,1.59,1.5913,1.597,1.602,1.6067,1.6134,1.6158,1.6205,1.6217,1.6187,1.6192,1.6204,1.6202,1.6234,1.624,1.6237,1.6237,1.6237,0,1.554,1.5567,1.5633,1.5659,1.5689,1.5731,1.5761,1.5807,1.5838,1.5899,1.5921,1.5973,1.6017,1.6095,1.6143,1.6195,1.6208,1.6216,1.6216,1.6204,1.6209,1.6207,1.6211,1.6215,1.6215,1.6214,1.6214,0,1.5548,1.5568,1.561,1.566,1.5695,1.5737,1.578,1.5799,1.5854,1.5887,1.5937,1.5971,1.6039,1.609,1.6147,1.6182,1.6208,1.6213,1.622,1.6208,1.619,1.6201,1.6185,1.6213,1.6213,1.6213,1.6213,1.6213,1.5548,1.5574,1.5624,1.567,1.5707,1.5746,1.5777,1.5815,1.5858,1.5915,1.594,1.5991,1.6044,1.6122,1.6156,1.6198,1.6204,1.6213,1.6215,1.6217,1.6215,1.6182,1.6209,1.6209,1.6209,1.6209,1.6209,0,1.5559,1.5593,1.5635,1.5693,1.5729,1.5748,1.5797,1.5826,1.587,1.5916,1.5958,1.6016,1.6067,1.6118,1.6172,1.6195,1.6209,1.6208,1.6207,1.6215,1.6206,1.6195,1.6196,1.6196,1.6196,1.6196,1.6196,1.6196,1.5569,1.5614,1.564,1.5704,1.5739,1.5788,1.5814,1.5851,1.5888,1.5951,1.5992,1.6025,1.6073,1.613,1.6178,1.6192,1.621,1.6206,1.6224,1.6215,1.6215,1.6216,1.6206,1.621,1.621,1.623,1.623,1.623]},{"header":{"parameterUnit":"m.s-1","parameterCategory":1,"la1":30.2991,"la2":30.254,"lo1":-89.0895,"lo2":-89.0444,"dy":0.0017,"dx":0.0017,"nx":28,"ny":28,"refTime":"2025-05-28T03:00:00:Z","depth":0,"parameterNumber":3,"parameterNumberName":"V-component_of_WINDS"},"data":[0,0,0,0,0,0,0,0,0,0,0,0,0,0,0,0,0,0,0,0,0,0,0,0,0,0,0,0,0,0,0,0,0,0,0,0,0,0,0,0,0,0,0,0,0,0,0,0,0,0,0,0,0,0,0,0,0,0,4.4215,4.4216,0,4.425,4.425,4.4251,4.4288,4.4288,4.4289,4.4289,4.4319,4.4319,4.4319,0,0,0,0,0,0,0,0,0,0,0,0,0,4.4178,4.4178,4.4215,4.4216,4.4216,4.425,4.425,4.4251,4.4287,4.4288,4.4289,4.4289,4.4319,4.4319,4.4319,0,0,0,0,0,0,0,0,0,0,0,0,0,4.4201,4.4178,4.4215,4.4239,4.4241,4.425,4.425,4.4251,4.4287,4.4288,4.4289,4.429,4.4318,4.4319,4.4319,4.4306,0,0,4.4321,4.4321,0,0,0,0,0,0,0,0,4.42,4.4202,4.4235,4.4237,4.424,4.4265,4.4248,4.4269,4.4287,4.427,4.4289,4.429,4.43,4.4302,4.4306,4.4307,4.4308,4.4321,4.4321,4.4321,4.4321,0,0,0,0,0,0,0,4.4198,4.4201,4.4229,4.4235,4.4238,4.4246,4.4251,4.4252,4.428,4.4271,4.4274,4.4278,4.4301,4.4306,4.4307,4.4309,4.4321,4.4321,4.4321,4.4321,4.4303,4.4302,0,0,0,0,0,0,4.4193,4.4199,4.4228,4.423,4.4222,4.4246,4.4251,4.4256,4.428,4.4284,4.4277,4.4279,4.4305,4.4307,4.4309,4.4296,4.4321,4.4322,4.4322,4.4304,4.4303,4.4302,0,0,0,0,0,0,4.4192,4.4196,4.4226,4.4216,4.422,4.4246,4.4252,4.4256,4.4261,4.4284,4.4289,4.4277,4.4306,4.4308,4.4307,4.4298,4.4322,4.4322,4.4305,4.4304,4.4303,4.427,0,0,0,0,0,0,4.4191,4.4195,4.4191,4.4215,4.4221,4.4225,4.4251,4.4257,4.4263,4.4266,4.4285,4.4289,4.4306,4.4307,4.4308,4.4299,4.4322,4.4306,4.4304,4.4303,4.4272,4.4268,4.4264,0,0,0,0,0,4.419,4.4178,4.419,4.4193,4.4216,4.4225,4.4227,4.4249,4.4262,4.4257,4.4273,4.4289,4.4299,4.4306,4.4308,4.4299,4.4306,4.4305,4.4303,4.4274,4.4269,4.4265,0,0,0,0,0,0,4.4149,4.4182,4.4195,4.4192,4.4206,4.4231,4.4226,4.4243,4.4251,4.4254,4.4278,4.4283,4.4279,4.4289,4.4297,4.4288,4.4305,4.4304,4.4282,4.4278,4.4274,4.4271,4.4323,0,0,0,0,0,4.414,4.4146,4.4173,4.4167,4.4174,4.4199,4.4203,4.4219,4.4234,4.4239,4.4254,4.4266,4.4272,4.4275,4.4282,4.4274,4.4279,4.4269,4.4265,4.4262,4.426,4.4259,4.4255,4.4297,4.4297,4.4297,0,0,4.412,4.4139,4.414,4.416,4.4172,4.4177,4.4203,4.4206,4.421,4.4239,4.424,4.4252,4.4267,4.4263,4.4262,4.4271,4.425,4.426,4.4257,4.4257,4.4256,4.4252,4.4249,4.4296,4.4296,4.4296,0,0,4.4087,4.4102,4.41,4.4113,4.4133,4.415,4.415,4.4174,4.4183,4.4186,4.4208,4.4212,4.4222,4.4233,4.4239,4.4214,4.423,4.4216,4.4195,4.4194,4.419,4.4187,4.418,4.4177,4.4214,4.4214,4.4214,0,4.406,4.407,4.4096,4.4099,4.4108,4.4137,4.4135,4.4146,4.4166,4.417,4.4181,4.4196,4.4207,4.4208,4.4202,4.4206,4.4207,4.4213,4.4189,4.4186,4.4184,4.4177,4.4174,4.4212,4.4212,4.4212,4.4213,0,4.4036,4.4042,4.4038,4.406,4.4068,4.4068,4.4094,4.4099,4.4115,4.4131,4.4134,4.415,4.4162,4.4163,4.4177,4.4166,4.4171,4.4185,4.4202,4.4178,4.4172,4.4169,4.421,4.421,4.4211,4.4211,0,0,4.3976,4.4016,4.4014,4.4025,4.4051,4.4056,4.4058,4.4073,4.4076,4.409,4.4092,4.4102,4.4116,4.4123,4.4139,4.4138,4.4119,4.4152,4.4153,4.4146,4.411,4.4099,4.4096,4.413,4.413,4.4129,4.4109,0,4.3948,4.3956,4.3981,4.3981,4.3988,4.4018,4.402,4.4036,4.4051,4.4059,4.4075,4.4082,4.41,4.4105,4.4105,4.4121,4.4112,4.4123,4.4132,4.4132,4.4128,4.4092,4.4081,4.4061,4.4106,4.4106,4.4106,0,4.3916,4.3931,4.3933,4.3961,4.3965,4.3967,4.3983,4.399,4.4009,4.4021,4.4031,4.405,4.4054,4.4071,4.4077,4.4084,4.4089,4.4098,4.4098,4.4099,4.4117,4.4093,4.4054,4.4052,4.4102,4.4102,4.4102,0,4.3873,4.3894,4.3898,4.3907,4.394,4.3941,4.3954,4.3974,4.3982,4.3996,4.4002,4.4015,4.4022,4.4032,4.4054,4.4064,4.4058,4.4076,4.4067,4.4067,4.4064,4.4064,4.4026,4.4067,4.4067,4.4067,4.4067,0,4.384,4.384,4.388,4.3883,4.3884,4.3913,4.3913,4.3929,4.3948,4.3954,4.3979,4.3984,4.4013,4.4021,4.4038,4.4041,4.4043,4.4053,4.4057,4.4051,4.405,4.4054,4.4056,4.4066,4.4066,4.4066,4.4066,0,4.3792,4.3819,4.3826,4.3859,4.3867,4.3866,4.3893,4.3897,4.3916,4.3923,4.3926,4.3954,4.3965,4.3989,4.4005,4.4017,4.4016,4.4024,4.4011,4.4014,4.4004,4.4005,4.3968,4.3965,4.4007,4.4007,4.4006,0,4.3769,4.377,4.3804,4.3811,4.3825,4.3835,4.3845,4.3874,4.3882,4.3906,4.3907,4.392,4.3933,4.3949,4.397,4.3984,4.3992,4.3979,4.3994,4.3988,4.3993,4.3993,4.3994,4.3975,4.3974,4.3974,4.3973,0,4.3725,4.374,4.3753,4.3772,4.3784,4.3799,4.3816,4.382,4.3853,4.3862,4.3875,4.3885,4.3904,4.3918,4.3935,4.3947,4.3966,4.3969,4.3968,4.3961,4.3953,4.3959,4.4002,4.3969,4.3969,4.397,4.397,4.397,4.3689,4.3693,4.3719,4.3734,4.375,4.3767,4.3773,4.3794,4.3806,4.3826,4.3842,4.3854,4.3875,4.39,4.3912,4.3922,4.3931,4.3928,4.3928,4.3927,4.3925,4.3952,4.3925,4.3925,4.3925,4.3925,4.3925,0,4.3648,4.3667,4.3681,4.3706,4.3718,4.3737,4.3758,4.3766,4.3778,4.3797,4.381,4.3826,4.384,4.3864,4.388,4.3883,4.3892,4.3886,4.3886,4.3889,4.3916,4.3916,4.3879,4.3879,4.3879,4.3879,4.3879,4.3879,4.3628,4.3636,4.3654,4.3671,4.3689,4.3704,4.3714,4.3729,4.3745,4.3763,4.3776,4.3793,4.3814,4.3833,4.3846,4.3853,4.3858,4.385,4.3859,4.3883,4.3887,4.3891,4.3891,4.385,4.385,4.3832,4.3832,4.3832]}]]